Location: Arbon
(43.0005°N, 0.7472°E)
Time: 08:21:55
(UTC+00:00)

Explorer 7 - Pass Details

Date: 27 November 2020
Orbit: 484 x 678 km, 50.3° (Epoch: 27 January)

Event Time Altitude Azimuth Distance (km) Brightness Sun altitude
Rises 04:24:38 0° 273° (W) 2,854 - -28.7°
Reaches altitude 10° 04:27:09 10° 282° (WNW) 1,915 - -28.2°
Maximum altitude 04:31:08 34° 348° (NNW) 949 - -27.5°
Exits shadow 04:32:49 24° 32° (NNE) 1,162 8.7 -27.2°
Drops below altitude 10° 04:34:54 10° 54° (NE) 1,806 10.0 -26.8°
Sets 04:37:14 0° 64° (ENE) 2,666 11.2 -26.4°
